...
188indobet
Poker online

Jackpot

Texas Poker Multi Jackpot System

Kini Telah hadir Jackpot SUPER ROYAL FLUSH

Kini Telah hadir Jackpot 2000 (khusus table VIP keatas).

Ikutilah global jackpot yang tersedia di system kami, dengan system jackpot terbaru dan pertama di indonesia, anda dapat membeli jackpot dengan harga 100 rupiah saja dan menangkan hadiahnya hingga puluhan juta rupiah.

Jackpot bukanlah suatu keharusan untuk dibeli, namun kami memberikan suatu fitur tambahan untuk member tercinta dari www.kartujos.com.

Terdapat tiga pilihan harga jackpot yang bisa anda beli yaitu :100,500,1000 dan 2000(khusus table VIP Keatas) rupiah.

Hadiah dari Multi jackpot system www.kartujos.com

  1. full house x 10 harga jackpot yang anda beli.
      (contoh:anda membeli 1000 maka:1000 X10 = 10.000)
  2. four of kind x 250 harga jackpot yang anda beli
      (contoh:anda membeli 1000 maka:1000 X250 = 250.000)
  3. Straight flush x 1200
      (contoh:anda membeli 1000 maka:1000 X1200 = 1.200.000)
  4. Royal flush x 10000 harga jackpot yang anda beli
      (contoh:anda membeli 1000 maka:1000 X10000 = 10.000.000)
  5. SUPER ROYAL FLUSH x 30000 harga jackpot yang anda beli
      (contoh:anda membeli 1000 maka:1000 X30000 = 30.000.000)

Kondisi kartu

  1. full house adalah kondisi kartu dimana kartu anda dan kartu tengah dengan total 7 kartu bisa mendapatkan nilai 5 kartu dengan kombinasi 1 tris(three of kind) dan 1 pair, contoh 3 kartu 10 dan 2 kartu 5
  2. Four of kind adalah kondisi kartu dimana kartu anda dan kartu tengah dengan total 7 kartu bisa mendapatkan nilai 5 kartu dengan kombinasi 4 kartu yang sama jumlah dan 1 kartu apapun juga contoh anda mendapatkan 4 buah kartu angka 3 dan 1 kartu apapun.
  3. Staright flush adalah kondisi kartu dimana kartu anda dan kartu tengah dengan total 7 kartu bisa mendapatkan nilai 5 kartu dengan kombinasi seri / staright dengan kembang yang sama contoh : urutan kartu dari angka 5, 6, 7, 8 , 9 10 dengan kembang yg sama misalnya as hati
  4. Royal flush adalah kondisi kartu dimana kartu anda dan kartu tengah dengan total 7 kartu bisa mendapatkan nilai 5 kartu dengan kombinasi seri / staright dengan kembang yang sama tetapi kartu tersebut haruslah dimulai dari 10. contoh 10, Queen, Jack, King dan aces dengan kembang yang sama
  5. Super Royal flush adalah kondisi kartu dimana Kedua kartu anda digabung dengan 3 kartu pertama meja haruslah royal flush. contoh kartu anda 10,Queen kembang sama dan 3 kartu pertama meja adalah Jack, King dan aces dengan kembang yang sama

Demikian adalah penjelasan dari Multi Jackpot www.kartujos.com terima kasih dan selamat bermain salam hoki dari kami

Texas Poker Jackpot Winner

TOP SUPER ROYAL FLUSH
No.TanggalNamaPriceWin
121/09 14:11ROYALJOZZSuper Royal flush60,000,000
221/09 13:43BA_ATIYOSuper Royal flush6,000,000
321/09 12:23B8EKCBJIYMSuper Royal flush3,000,000
421/09 08:32TUPO25Super Royal flush3,000,000
521/09 07:21SLOME898Super Royal flush30,000,000
TOP ROYAL FLUSH
No.TanggalNamaPriceWin
122/09 02:12HPZB6QZ1ZNRoyal flush2,000,000
222/09 01:56KUPRAANTORoyal flush10,000,000
322/09 01:56B18BANG17460Royal flush10,000,000
422/09 01:51W1D2345Royal flush1,000,000
522/09 01:43ANTICEBONGRoyal flush10,000,000
TOP STRAIGHT FLUSH
No.TanggalNamaPriceWin
122/09 02:09JEPARA87Straight Flush2,400,000
222/09 02:07SAEASStraight Flush2,400,000
322/09 02:07LUCKY_E7EStraight Flush1,200,000
422/09 02:06ACENG24Straight Flush240,000
522/09 02:06ALFABETStraight Flush240,000
LATEST JACKPOT
No.TanggalNamaPriceWin
122/09 02:12JUDIKHANFull House2,000
222/09 02:12SUKRI007Full House2,000
322/09 02:12PASISANANIFull House10,000
422/09 02:12PEKO45Full House2,000
522/09 02:12HUJANDERASFour Of A Kind125,000
622/09 02:12LOVEBIRD09Full House2,000
722/09 02:12NAKMELDFull House10,000
822/09 02:12RENDY_99Full House5,000
922/09 02:12R4FIANFull House5,000
1022/09 02:12PIRANG05Four Of A Kind125,000
1122/09 02:12RETYPE22Four Of A Kind125,000
1222/09 02:12JASMARI888Full House10,000
1322/09 02:12G_WEAH79Full House1,000
1422/09 02:12NYARAPFull House2,000
1522/09 02:12PSB7Full House10,000
1622/09 02:12MANSYUR123Full House1,000
1722/09 02:12ONYON69Full House2,000
1822/09 02:12DAGDIG80Full House2,000
1922/09 02:12BANGSYADFull House20,000
2022/09 02:12BRETT88Full House1,000
2122/09 02:12TQ18AQCNTAFull House10,000
2222/09 02:12RAJASEX007Full House20,000
2322/09 02:12SEPA09Full House5,000
2422/09 02:12GODEK218Full House5,000
2522/09 02:12ULIMFull House2,000
2622/09 02:12WAKAJI88Full House2,000
2722/09 02:12STLERR12Full House2,000
2822/09 02:12XTREME_98Full House5,000
2922/09 02:12G_RFour Of A Kind500,000
3022/09 02:12HPZB6QZ1ZNRoyal flush2,000,000
3122/09 02:12YANFAY312Four Of A Kind25,000
3222/09 02:12IJUH554Four Of A Kind50,000
3322/09 02:12ASVIE1411Full House1,000
3422/09 02:12JOANAFull House2,000
3522/09 02:12DOLENG28Full House1,000
3622/09 02:12EA9D3117Full House5,000
3722/09 02:12SELLYBULUFull House1,000
3822/09 02:12ZANDISFull House5,000
3922/09 02:12DUNG2000Full House5,000
4022/09 02:12UPUY059Full House10,000
4122/09 02:12KATUNG11Full House1,000
4222/09 02:12E5F8CE71Full House1,000
4322/09 02:12EA9B1294Full House2,000
4422/09 02:12BANGJOW27Full House2,000
4522/09 02:12BANGBIGOFull House5,000
4622/09 02:12JALU_07Full House5,000
4722/09 02:12OTONG999Full House10,000
4822/09 02:12REHAN990Full House10,000
4922/09 02:12KINGHOKI_Full House5,000
5022/09 02:12BENDOET66Full House5,000

Domino Multi Jackpot System

Ikutilah global jackpot yang tersedia di system kami, dengan system jackpot terbaru dan pertama di indonesia, anda dapat membeli jackpot dengan harga 100 rupiah saja dan menangkan hadiahnya hingga puluhan juta rupiah.

Jackpot bukanlah suatu keharusan untuk dibeli, namun kami memberikan suatu fitur tambahan untuk member tercinta dari www.kartujos.com.

Terdapat tiga pilihan harga jackpot yang bisa anda beli yaitu :100,500 dan 1000 rupiah.

Hadiah dari Multi jackpot system www.kartujos.com

  1. Murni Kecil x 50 harga jackpot yang anda beli.
      (contoh:anda membeli 1000 maka:1000 X 50 = 50.000)
  2. Murni Besar x 50 harga jackpot yang anda beli
      (contoh:anda membeli 1000 maka:1000 X 50 = 50.000)
  3. BALAK x 100 harga jackpot yang anda beli
      (contoh:anda membeli 1000 maka:1000 X 100 = 100.000)
  4. ENAM DEWA x 6666 harga jackpot yang anda beli
      (contoh:anda membeli 1000 maka:1000 X 6666 = 6.666.000)

Demikian adalah penjelasan dari Multi Jackpot www.kartujos.com terima kasih dan selamat bermain salam hoki dari kami

Domino Jackpot Winner

TOP ENAM DEWA
No.TanggalNamaPriceWin
122/09 01:09WISMA92murni enam3,333,000
222/09 01:08ABAY888888murni enam3,333,000
322/09 00:44AMSEO99murni enam3,333,000
422/09 00:43DYCK22murni enam6,666,000
521/09 23:35TEMPE444murni enam666,600
TOP BALAK
No.TanggalNamaPriceWin
122/09 02:12Z03LF1K4Rbalak100,000
222/09 02:11A3189585balak10,000
322/09 02:10WAHYU7326balak100,000
422/09 02:08PIT99balak100,000
522/09 02:05MJS99balak50,000
LATEST JACKPOT
No.TanggalNamaPriceWin
122/09 02:12PIT99murni besar50,000
222/09 02:12J3NGK0L1Nmurni besar50,000
322/09 02:12Z03LF1K4Rbalak100,000
422/09 02:11MAKMUR_999murni besar50,000
522/09 02:11A3189585balak10,000
622/09 02:11LUTHFI99murni kecil25,000
722/09 02:10NANGDOYmurni kecil25,000
822/09 02:10WAHYU7326balak100,000
922/09 02:10ERMAWA505murni besar50,000
1022/09 02:10MASYUDSSmurni kecil50,000
1122/09 02:09ALASAN11murni besar50,000
1222/09 02:09AMSEO99murni besar25,000
1322/09 02:08PIT99balak100,000
1422/09 02:08DEIRGI123murni kecil50,000
1522/09 02:08ICHAL46murni kecil50,000
1622/09 02:07SYAHRI86murni kecil25,000
1722/09 02:07HELMSNImurni kecil50,000
1822/09 02:05S4B4R89murni besar50,000
1922/09 02:05MJS99balak50,000
2022/09 02:05T212BOM99murni besar25,000
2122/09 02:05KALVENOmurni kecil50,000
2222/09 02:04PANGSIIT23balak100,000
2322/09 02:04WISMA92murni besar25,000
2422/09 02:04POK71murni besar50,000
2522/09 02:04SABUSEDOT8murni besar25,000
2622/09 02:03AALNACK855murni kecil25,000
2722/09 02:02KOKOS09murni kecil25,000
2822/09 02:02RH4848murni kecil50,000
2922/09 02:02ACIL66murni besar50,000
3022/09 02:02GENK990murni besar5,000
3122/09 02:02SYAMSUL99balak50,000
3222/09 02:02AGUNG250balak10,000
3322/09 02:01SUMMON99balak50,000
3422/09 02:01LB886763lucky9925,000
3522/09 02:01KOLOBOT99murni kecil5,000
3622/09 02:00ASHCOMmurni kecil50,000
3722/09 02:00GOSSQQmurni kecil25,000
3822/09 02:00SUIT99murni besar50,000
3922/09 02:00TMN07murni kecil50,000
4022/09 02:00WAWANNN5Ymurni kecil25,000
4122/09 02:00DEDY1575balak10,000
4222/09 01:58GENK990murni besar5,000
4322/09 01:58BUYUT_42murni kecil5,000
4422/09 01:58KOPIRACUNmurni besar25,000
4522/09 01:58NORAARIYANmurni besar50,000
4622/09 01:57KUCIP77balak50,000
4722/09 01:57LB997666murni kecil50,000
4822/09 01:57GEULIS86murni besar25,000
4922/09 01:57AKATSUKI17murni kecil50,000
5022/09 01:57LAOYAJRmurni besar5,000

Ceme Multi Jackpot System

Jackpot dilihat dari gabungan kartu pemain dengan kartu bandar. Bandar harus membeli jackpot sebanyak jumlah player yang sedang duduk. Sebagai contoh bila terdapat 3 pemain duduk bermain, dan bandar memutuskan untuk membeli jackpot Rp 1.000, maka pada periode tersebut bandar akan membeli jackpot sebanyak 3xRp1.000 = Rp3.000.

Jackpot bukanlah suatu keharusan untuk dibeli, namun kami memberikan suatu fitur tambahan untuk member tercinta dari www.kartujos.com.

Terdapat tiga pilihan harga jackpot yang bisa anda beli yaitu :100,500 dan 1000 rupiah.

Hadiah dari Multi jackpot system www.kartujos.com

  1. Murni Kecil x 50 harga jackpot yang anda beli.
      (contoh:anda membeli 1000 maka:1000 X 50 = 50.000)
  2. Murni Besar x 50 harga jackpot yang anda beli
      (contoh:anda membeli 1000 maka:1000 X 50 = 50.000)
  3. BALAK x 200 harga jackpot yang anda beli
      (contoh:anda membeli 1000 maka:1000 X 200 = 200.000)
  4. ENAM DEWA x 6666 harga jackpot yang anda beli
      (contoh:anda membeli 1000 maka:1000 X 6666 = 6.666.000)

Demikian adalah penjelasan dari Multi Jackpot www.kartujos.com terima kasih dan selamat bermain salam hoki dari kami

Ceme Jackpot Winner

TOP ENAM DEWA
No.TanggalNamaPriceWin
122/09 01:13ALUCARD27murni enam6,666,000
222/09 01:12MRET27murni enam3,333,000
322/09 00:58MARZO11murni enam6,666,000
422/09 00:58FENGLIE12murni enam666,600
522/09 00:49TINIQU9murni enam6,666,000
TOP BALAK
No.TanggalNamaPriceWin
122/09 02:12SUMARNA889balak200,000
222/09 02:12BUNGLON99balak200,000
322/09 02:11TOLPETbalak200,000
422/09 02:11WIDIA11balak200,000
522/09 02:11CBRU36balak20,000
LATEST JACKPOT
No.TanggalNamaPriceWin
122/09 02:12DAKKENOmurni besar50,000
222/09 02:12UNIN53murni besar25,000
322/09 02:12IBLIS92murni besar50,000
422/09 02:12KAKIKAWAK1murni besar5,000
522/09 02:12RAFFA84murni kecil50,000
622/09 02:12AQAE77murni kecil50,000
722/09 02:12BRONGJAMSmurni kecil25,000
822/09 02:12AQAE77murni kecil50,000
922/09 02:12AFANDI15murni kecil5,000
1022/09 02:12SNTSVO3PUQmurni kecil50,000
1122/09 02:12SINAR_007murni kecil50,000
1222/09 02:12SUMARNA889balak200,000
1322/09 02:12EPLONDOmurni kecil50,000
1422/09 02:12BUNGLON99balak200,000
1522/09 02:12SANTOS10murni besar5,000
1622/09 02:12THEGAR45murni besar25,000
1722/09 02:12WIN343murni kecil50,000
1822/09 02:11TOLPETbalak200,000
1922/09 02:11MANDAI99murni kecil50,000
2022/09 02:11RASYARAFA1murni kecil50,000
2122/09 02:11SIOOMTOMSmurni kecil25,000
2222/09 02:11WIDIA11balak200,000
2322/09 02:11CBRU36balak20,000
2422/09 02:11OMBINGGGmurni besar25,000
2522/09 02:11COMOTI3838murni besar50,000
2622/09 02:11GENK69murni kecil50,000
2722/09 02:11JHONIESMOmurni kecil50,000
2822/09 02:11ALFATIKmurni kecil50,000
2922/09 02:11ANDRAIMUTmurni kecil50,000
3022/09 02:11JOKER122balak20,000
3122/09 02:11VANDERGUNmurni kecil50,000
3222/09 02:11THREE319murni kecil50,000
3322/09 02:11RIVAL8888murni kecil5,000
3422/09 02:11MANTEN1murni besar50,000
3522/09 02:11GUNDUL2020murni kecil50,000
3622/09 02:10AHOK9999murni besar50,000
3722/09 02:10DILUKNEHmurni besar50,000
3822/09 02:10YUNANBAmurni besar25,000
3922/09 02:10PAJOBBOmurni besar5,000
4022/09 02:10MUNYOK77murni besar50,000
4122/09 02:10OPPPO99murni besar25,000
4222/09 02:10SUET99murni besar50,000
4322/09 02:10AMUK77murni besar50,000
4422/09 02:10SUET99balak200,000
4522/09 02:10THE_WINERSbalak200,000
4622/09 02:10PRO2330murni besar50,000
4722/09 02:10FU0504murni kecil5,000
4822/09 02:10DARKAM88murni besar50,000
4922/09 02:10NDO9_AS_AKmurni besar5,000
5022/09 02:10OMBINGGGmurni besar25,000